Flag Weather past 2 weeks in Stange, Norway

Now
25 °F

Chilly.


Feels Like: 25 °F
Forecast: 31 / 35 °F
Wind: 1 mph from Southeast

Location: Haugedalshogda

Current Time: Nov 28, 2014 at 4:30:58 AM

Latest Report: Nov 28, 2014 at 3:00 AM


Visibility: N/A

Pressure: 30.39 "Hg

Humidity: 96%

Dew point: 24 °F

Location of StangeLocation

Historic Weather in Stange — Graph

°F

Stange temperature yesterday

Maximum temperature yesterday: 25 °F (at 11:00 PM)
Minimum temperature yesterday: 9 °F (at 5:00 AM)
Average temperature yesterday: 18 °F

Past Weeks' High & Low Weather Summary

 TemperatureHumidityPressure
High40 °F (Nov 15, 1:00 PM)98% (Nov 25, 7:00 AM)30.58 "Hg (Nov 25, 7:00 AM)
Low9 °F (Nov 27, 5:00 AM)85% (Nov 13, 1:00 PM)29.75 "Hg (Nov 24, 1:00 PM)
Average31 °F95%30.32 "Hg
* Reported Nov 13 3:00 AM — Nov 28 3:00 AM, Stange, Weather by CustomWeather, © 2014

Note: Actual official high and low records may vary slightly from our data, if they occured in-between our weather recording intervals... More about our weather records

Advertising

Stange weather history for previous 24 hours

 ConditionsComfort  
Time TempWeatherWind HumidityBarometerVisibility
3:00 AM
Nov 28
25 °FChilly.1 mph96%30.39 "HgN/A
2:00 AM25 °FChilly.No wind96%30.38 "HgN/A
1:00 AM25 °FChilly.No wind96%30.38 "HgN/A
12:00 AM25 °FCold.1 mph96%30.37 "HgN/A
11:00 PM
Nov 27
25 °FCold.2 mph96%30.37 "HgN/A
10:00 PM24 °FCold.No wind95%30.36 "HgN/A
9:00 PM24 °FCold.1 mph95%30.36 "HgN/A
8:00 PM23 °FCold.No wind95%30.35 "HgN/A
7:00 PM23 °FCold.1 mph94%30.34 "HgN/A
6:00 PM22 °FCold.1 mph94%30.33 "HgN/A
5:00 PM21 °FCold.No wind94%30.32 "HgN/A
4:00 PM21 °FCold.1 mph93%30.31 "HgN/A
3:00 PM21 °FCold.1 mph94%30.31 "HgN/A
2:00 PM21 °FCold.1 mph94%30.31 "HgN/A
1:00 PM20 °FCold.2 mph93%30.31 "HgN/A
12:00 PM19 °FCold.1 mph93%30.31 "HgN/A
11:00 AM17 °FCold.N/A93%30.32 "HgN/A
10:00 AM15 °FCold.N/A92%30.32 "HgN/A
9:00 AM15 °FCold.N/A92%30.32 "HgN/A
8:00 AM13 °FCold.N/A92%30.32 "HgN/A
7:00 AM10 °FFrigid.N/A90%30.32 "HgN/A
6:00 AM10 °FFrigid.N/A90%30.32 "HgN/A
5:00 AM9 °FFrigid.N/A90%30.32 "HgN/A
Weather by CustomWeather, © 2014

See weather overviewHow to use our weather pages